Content
SEND FEEDBACK

Daily
Averages
Monthly
Summary
United States of America

OROVILLE, CALIFORNIA


Home > North America > United States > California
Elevation: 199 feet     Latitude: 39 30N     Longitude: 121 37W

WEATHER
 
SELECT A DAY
Number of Records: 152,391;   Date Range: 6/17/98 - 8/12/14
 
SHARE

PRINT THIS DATA

[ ← Previous Day ]
WEATHER ALMANAC - NOVEMBER 16, 2013
[ Next Day → ]
[ °C ]   °F
Weather ElementAverageHighLow
Temperature54.1 °F64 °F (12:53 pm)46 °F (2:53 am)
Dewpoint35.4 °F37.9 °F (6:53 am)28.9 °F (1:53 am)
Humidity50.3 %73 % (6:53 am)34 % (12:53 pm)
Barometer29.84 in29.94 in (11:53 pm)29.76 in (2:53 am)
Wind Speed6.2 mph12.7 mph (9:53 am)
Wind Gust18.4 mph (1:53 pm)
Weather ElementAverage
Visibility9.9 mi
Wind DirectionESE (120.9 °)

Weather ElementTotal
Precipitation---
Heating Degree Days10 (Base 65)
Growing Degree Days5 (Base 50)
Averaged from 23 records on November 16, 2013
WEATHER CONDITIONS BREAKOUT
WIND DIRECTION BREAKOUT
WEATHER BY HOUR - NOVEMBER 16, 2013
[ °C ]   °F
Local TimeTemperatureDewpointHumidityBarometerVisibilityWind DirectionWind SpeedGust SpeedPrecipitationEventsConditions
1:53 AM46.9 °F28.9 °F50 %29.77 in10.0 miEast (100°)5.8 mphClear
2:53 AM46.0 °F28.9 °F51 %29.76 in10.0 miSSE (160°)5.8 mphMostly Cloudy
3:53 AM48.9 °F30.9 °F50 %29.76 in10.0 miEast (90°)3.5 mphPartly Cloudy
4:53 AM51.1 °F32.0 °F48 %29.77 in10.0 miEast (90°)3.5 mphOvercast
5:53 AM46.9 °F34.0 °F61 %29.78 in10.0 miCalmOvercast
6:53 AM46.0 °F37.9 °F73 %29.81 in10.0 miNNW (330°)3.5 mphMostly Cloudy
7:53 AM50.0 °F36.0 °F59 %29.84 in10.0 miCalmScattered Clouds
8:53 AM54.0 °F36.0 °F51 %29.85 in10.0 miSouth (170°)3.5 mphClear
9:53 AM57.9 °F36.0 °F44 %29.84 in10.0 miSE (130°)12.7 mphClear
10:53 AM61.0 °F36.0 °F39 %29.86 in10.0 miSE (140°)8.1 mphClear
11:53 AM63.0 °F37.0 °F38 %29.84 in10.0 miSouth (170°)10.4 mphMostly Cloudy
12:53 PM64.0 °F35.1 °F34 %29.83 in10.0 miSouth (190°)10.4 mphClear
1:53 PM64.0 °F36.0 °F35 %29.82 in10.0 miSouth (180°)11.5 mph18.4 mphClear
2:53 PM64.0 °F35.1 °F34 %29.83 in10.0 miSouth (180°)11.5 mphClear
3:53 PM62.1 °F37.0 °F39 %29.83 in7.0 miSouth (180°)9.2 mphClear
4:53 PM57.9 °F37.0 °F46 %29.83 in10.0 miSSE (160°)3.5 mphClear
5:53 PM54.0 °F37.0 °F53 %29.86 in10.0 miEast (90°)4.6 mphClear
6:53 PM53.1 °F37.9 °F57 %29.87 in10.0 miEast (80°)4.6 mphClear
7:53 PM51.1 °F37.0 °F59 %29.90 in10.0 miENE (70°)8.1 mphClear
8:53 PM50.0 °F37.0 °F61 %29.91 in10.0 miENE (70°)4.6 mphClear
9:53 PM51.1 °F37.9 °F61 %29.92 in10.0 miENE (70°)5.8 mphClear
10:53 PM51.1 °F37.0 °F59 %29.93 in10.0 miENE (60°)5.8 mphClear
11:53 PM51.1 °F36.0 °F56 %29.94 in10.0 miENE (70°)6.9 mphClear
Hourly data recorded from KOVE, located miles away from Oroville, California







STORIES FROM OUR PARTNERS